Location: Amsterdam
(30.7274°N, 84.4357°W)
Time: 09:36:03
(UTC+00:00)

Transit 2A - All Passes

Search period start: 17 February 2026 00:00
Search period end: 27 February 2026 00:00
Orbit: 589 x 955 km, 66.7° (Epoch: 16 February)

Date Brightness Start Highest point End Pass type
(mag) Time Alt. Az. Time Alt. Az. Time Alt. Az.
17 Feb - 02:32:01 10° NNE 02:35:41 17° NE 02:39:09 10° E visible
17 Feb - 04:13:38 10° NNW 04:19:17 60° WSW 04:24:21 10° S night (unlit)
17 Feb - 17:02:18 10° S 17:07:43 38° ESE 17:13:26 10° NE daylight
17 Feb - 18:45:38 10° WSW 18:50:50 29° WNW 18:56:16 10° N daylight
18 Feb - 01:57:28 10° NNE 01:58:56 11° NE 02:00:22 10° ENE visible
18 Feb - 03:37:11 10° NNW 03:43:00 84° ENE 03:48:11 10° SSE night (unlit)
18 Feb - 16:26:55 10° SSE 16:31:34 24° ESE 16:36:26 10° NE daylight
18 Feb - 18:08:37 10° SW 18:14:18 44° WNW 18:20:18 10° NNE daylight
19 Feb - 03:00:56 10° NNW 03:06:36 52° ENE 03:11:40 10° SE visible
19 Feb - 04:45:52 10° WNW 04:48:58 15° WSW 04:51:56 10° SW night (unlit)
19 Feb - 15:52:15 10° SE 15:55:30 15° ESE 15:58:50 10° ENE daylight
19 Feb - 17:31:56 10° SW 17:37:52 67° WNW 17:44:09 10° NNE daylight
20 Feb - 02:24:54 10° N 02:30:06 33° ENE 02:34:50 10° ESE visible
20 Feb - 04:08:23 10° NW 04:12:54 26° WSW 04:17:05 10° SSW night (unlit)
20 Feb - 16:55:33 10° SSW 17:01:30 81° ESE 17:07:49 10° NNE daylight
20 Feb - 18:41:49 10° W 18:45:20 15° NW 18:48:54 10° NNW daylight
21 Feb - 01:49:05 10° N 01:53:30 22° NE 01:57:36 10° ESE visible
21 Feb - 03:31:28 10° NW 03:36:46 42° WSW 03:41:33 10° S visible
21 Feb - 16:19:29 10° S 16:25:14 52° ESE 16:31:19 10° NE daylight
21 Feb - 18:03:56 10° WSW 18:08:38 23° NW 18:13:29 10° N daylight
22 Feb - 01:13:44 10° NNE 01:16:49 15° NE 01:19:45 10° E visible
22 Feb - 02:54:52 10° NNW 03:00:33 70° WSW 03:05:37 10° SSE visible
22 Feb - 15:43:47 10° S 15:49:02 33° ESE 15:54:33 10° NE daylight
22 Feb - 17:26:37 10° WSW 17:32:02 33° WNW 17:37:41 10° N daylight
23 Feb - 02:18:30 10° NNW 02:24:13 73° ENE 02:29:20 10° SSE visible
23 Feb - 15:08:33 10° SSE 15:12:55 21° ESE 15:17:26 10° ENE daylight
23 Feb - 16:49:42 10° SW 16:55:32 50° WNW 17:01:40 10° NNE daylight
24 Feb - 01:42:18 10° NNW 01:47:48 45° ENE 01:52:44 10° SE visible
24 Feb - 03:26:42 10° WNW 03:30:17 18° WSW 03:33:39 10° SW visible
24 Feb - 14:34:18 10° SE 14:36:51 13° E 14:39:26 10° ENE daylight
24 Feb - 16:13:06 10° SSW 16:19:06 76° WNW 16:25:27 10° NNE daylight
24 Feb - 18:01:10 10° WNW 18:03:13 12° NW 18:05:18 10° NNW daylight
25 Feb - 01:06:20 10° N 01:11:16 29° NE 01:15:46 10° ESE visible
25 Feb - 02:49:26 10° NW 02:54:12 29° WSW 02:58:33 10° SSW visible
25 Feb - 15:36:48 10° SSW 15:42:46 71° ESE 15:49:04 10° NNE daylight
25 Feb - 17:22:29 10° W 17:26:28 17° NW 17:30:31 10° N daylight
26 Feb - 00:30:38 10° N 00:34:38 19° NE 00:38:22 10° E visible
26 Feb - 02:12:38 10° NW 02:18:02 49° WSW 02:22:53 10° S visible
26 Feb - 15:00:51 10° S 15:06:31 46° ESE 15:12:29 10° NE daylight
26 Feb - 16:44:48 10° WSW 16:49:48 26° NW 16:54:57 10° N daylight
